,,PressureMeas_1m,,PRMeasQMR101_1,,RHStat155_1m_1,,SRMeasQMS101R_1m,,TAStat155_1m_1,,GenWind_1,,GenWind_1,
2017-04-28, 07:00:06,VALID,919.002,VALID,0.0,VALID,97.865,VALID,66.788,VALID,19.615,VALID,335.0,VALID,0.71,
2017-04-28, 07:01:06,VALID,919.012,VALID,0.0,VALID,97.888,VALID,68.693,VALID,19.626,VALID,332.0,VALID,0.574,
2017-04-28, 07:02:06,VALID,919.02,VALID,0.0,VALID,97.868,VALID,70.149,VALID,19.619,VALID,332.0,VALID,0.743,
2017-04-28, 07:03:06,VALID,919.049,VALID,0.0,VALID,97.952,VALID,70.853,VALID,19.635,VALID,337.0,VALID,0.804,
2017-04-28, 07:04:06,VALID,919.043,VALID,0.0,VALID,97.916,VALID,71.345,VALID,19.646,VALID,7.0,VALID,0.758,
2017-04-28, 07:05:06,VALID,919.053,VALID,0.0,VALID,98.034,VALID,72.735,VALID,19.696,VALID,15.0,VALID,1.057,
2017-04-28, 07:06:06,VALID,919.068,VALID,0.0,VALID,97.95,VALID,73.857,VALID,19.71,VALID,10.0,VALID,1.025,
2017-04-28, 07:07:06,VALID,919.069,VALID,0.0,VALID,97.767,VALID,75.99,VALID,19.735,VALID,356.0,VALID,1.365,
2017-04-28, 07:08:06,VALID,919.077,VALID,0.0,VALID,97.61,VALID,78.607,VALID,19.791,VALID,11.0,VALID,0.814,
2017-04-28, 07:09:06,VALID,919.063,VALID,0.0,VALID,97.448,VALID,81.577,VALID,19.837,VALID,24.0,VALID,1.124,
2017-04-28, 07:10:06,VALID,919.077,VALID,0.0,VALID,97.678,VALID,84.148,VALID,19.911,VALID,355.0,VALID,0.687,
2017-04-28, 07:11:06,VALID,919.073,VALID,0.0,VALID,97.576,VALID,86.741,VALID,19.9,VALID,346.0,VALID,0.786,
2017-04-28, 07:12:06,VALID,919.07,VALID,0.0,VALID,97.614,VALID,91.143,VALID,19.913,VALID,352.0,VALID,0.589,
2017-04-28, 07:13:06,VALID,919.069,VALID,0.0,VALID,97.544,VALID,95.661,VALID,19.901,VALID,347.0,VALID,0.979,
2017-04-28, 07:14:06,VALID,919.088,VALID,0.0,VALID,97.447,VALID,97.8,VALID,19.902,VALID,349.0,VALID,0.898,
2017-04-28, 07:15:06,VALID,919.082,VALID,0.0,VALID,97.372,VALID,97.577,VALID,19.904,VALID,345.0,VALID,0.815,
2017-04-28, 07:16:06,VALID,919.085,VALID,0.0,VALID,97.42,VALID,99.454,VALID,19.917,VALID,340.0,VALID,0.787,
2017-04-28, 07:17:06,VALID,919.082,VALID,0.0,VALID,97.36,VALID,103.687,VALID,19.916,VALID,4.0,VALID,0.751,
2017-04-28, 07:18:06,VALID,919.085,VALID,0.0,VALID,97.474,VALID,106.989,VALID,19.925,VALID,10.0,VALID,1.097,
2017-04-28, 07:19:06,VALID,919.103,VALID,0.0,VALID,97.397,VALID,108.096,VALID,19.961,VALID,344.0,VALID,0.632,
2017-04-28, 07:20:06,VALID,919.118,VALID,0.0,VALID,97.546,VALID,108.21,VALID,19.984,VALID,344.0,VALID,0.241,
2017-04-28, 07:21:06,VALID,919.122,VALID,0.0,VALID,97.686,VALID,109.278,VALID,20.013,VALID,351.0,VALID,0.621,
2017-04-28, 07:22:06,VALID,919.112,VALID,0.0,VALID,97.644,VALID,111.351,VALID,20.012,VALID,345.0,VALID,0.744,
2017-04-28, 07:23:06,VALID,919.12,VALID,0.0,VALID,97.419,VALID,113.246,VALID,20.004,VALID,2.0,VALID,0.87,
2017-04-28, 07:24:06,VALID,919.137,VALID,0.0,VALID,97.691,VALID,115.301,VALID,20.068,VALID,358.0,VALID,0.577,
2017-04-28, 07:25:06,VALID,919.145,VALID,0.0,VALID,97.721,VALID,116.981,VALID,20.102,VALID,352.0,VALID,0.591,
2017-04-28, 07:26:06,VALID,919.146,VALID,0.0,VALID,97.458,VALID,118.318,VALID,20.088,VALID,322.0,VALID,0.616,
2017-04-28, 07:27:06,VALID,919.15,VALID,0.0,VALID,97.378,VALID,119.696,VALID,20.092,VALID,338.0,VALID,0.628,
2017-04-28, 07:28:06,VALID,919.156,VALID,0.0,VALID,97.274,VALID,120.927,VALID,20.078,VALID,334.0,VALID,0.544,
2017-04-28, 07:29:06,VALID,919.159,VALID,0.0,VALID,97.328,VALID,125.039,VALID,20.087,VALID,342.0,VALID,0.47,
2017-04-28, 07:30:06,VALID,919.175,VALID,0.0,VALID,97.381,VALID,129.038,VALID,20.093,VALID,338.0,VALID,0.611,
2017-04-28, 07:31:06,VALID,919.188,VALID,0.0,VALID,97.377,VALID,131.255,VALID,20.11,VALID,334.0,VALID,0.351,
2017-04-28, 07:32:06,VALID,919.197,VALID,0.0,VALID,97.541,VALID,132.255,VALID,20.14,VALID,291.0,VALID,0.209,
2017-04-28, 07:33:06,VALID,919.229,VALID,0.0,VALID,97.231,VALID,132.926,VALID,20.111,VALID,289.0,VALID,0.328,
2017-04-28, 07:34:06,VALID,919.246,VALID,0.0,VALID,97.474,VALID,133.411,VALID,20.147,VALID,254.0,VALID,0.004,
2017-04-28, 07:35:06,VALID,919.247,VALID,0.0,VALID,97.68,VALID,132.317,VALID,20.184,VALID,249.0,VALID,0.0,
2017-04-28, 07:36:06,VALID,919.251,VALID,0.0,VALID,97.536,VALID,131.212,VALID,20.165,VALID,252.0,VALID,0.0,
2017-04-28, 07:37:06,VALID,919.253,VALID,0.0,VALID,97.746,VALID,130.724,VALID,20.194,VALID,251.0,VALID,0.0,
2017-04-28, 07:38:06,VALID,919.264,VALID,0.0,VALID,97.57,VALID,129.01,VALID,20.158,VALID,248.0,VALID,0.0,
2017-04-28, 07:39:06,VALID,919.258,VALID,0.0,VALID,97.562,VALID,126.027,VALID,20.152,VALID,241.0,VALID,0.0,
2017-04-28, 07:40:06,VALID,919.284,VALID,0.0,VALID,97.625,VALID,126.922,VALID,20.156,VALID,242.0,VALID,0.0,
2017-04-28, 07:41:06,VALID,919.291,VALID,0.0,VALID,97.721,VALID,130.419,VALID,20.187,VALID,242.0,VALID,0.0,
2017-04-28, 07:42:06,VALID,919.297,VALID,0.0,VALID,98.015,VALID,137.271,VALID,20.274,VALID,242.0,VALID,0.0,
2017-04-28, 07:43:06,VALID,919.311,VALID,0.0,VALID,98.092,VALID,144.485,VALID,20.34,VALID,219.0,VALID,0.03,
2017-04-28, 07:44:06,VALID,919.315,VALID,0.0,VALID,98.013,VALID,152.625,VALID,20.339,VALID,238.0,VALID,0.131,
2017-04-28, 07:45:06,VALID,919.323,VALID,0.0,VALID,97.875,VALID,163.19,VALID,20.338,VALID,228.0,VALID,0.107,
2017-04-28, 07:46:06,VALID,919.34,VALID,0.0,VALID,97.826,VALID,206.45,VALID,20.344,VALID,251.0,VALID,0.345,
2017-04-28, 07:47:06,VALID,919.365,VALID,0.0,VALID,97.581,VALID,205.934,VALID,20.33,VALID,257.0,VALID,0.34,
2017-04-28, 07:48:06,VALID,919.394,VALID,0.0,VALID,97.505,VALID,190.864,VALID,20.334,VALID,284.0,VALID,0.235,
2017-04-28, 07:49:06,VALID,919.403,VALID,0.0,VALID,97.805,VALID,186.984,VALID,20.407,VALID,324.0,VALID,0.078,
2017-04-28, 07:50:06,VALID,919.429,VALID,0.0,VALID,97.874,VALID,190.218,VALID,20.473,VALID,331.0,VALID,0.048,
2017-04-28, 07:51:06,VALID,919.464,VALID,0.0,VALID,98.058,VALID,198.819,VALID,20.564,VALID,306.0,VALID,0.052,
2017-04-28, 07:52:06,VALID,919.477,VALID,0.0,VALID,97.991,VALID,191.924,VALID,20.603,VALID,272.0,VALID,0.001,
2017-04-28, 07:53:06,VALID,919.503,VALID,0.0,VALID,98.008,VALID,179.916,VALID,20.641,VALID,260.0,VALID,0.027,
2017-04-28, 07:54:06,VALID,919.515,VALID,0.0,VALID,97.992,VALID,188.365,VALID,20.678,VALID,287.0,VALID,0.184,
2017-04-28, 07:55:06,VALID,919.532,VALID,0.0,VALID,98.024,VALID,201.013,VALID,20.71,VALID,335.0,VALID,0.41,
2017-04-28, 07:56:06,VALID,919.528,VALID,0.0,VALID,97.913,VALID,207.634,VALID,20.718,VALID,321.0,VALID,0.013,
2017-04-28, 07:57:06,VALID,919.539,VALID,0.0,VALID,97.965,VALID,214.67,VALID,20.751,VALID,322.0,VALID,0.073,
2017-04-28, 07:58:06,VALID,919.544,VALID,0.0,VALID,97.816,VALID,215.54,VALID,20.747,VALID,303.0,VALID,0.153,
2017-04-28, 07:59:06,VALID,919.54,VALID,0.0,VALID,97.429,VALID,218.905,VALID,20.679,VALID,314.0,VALID,0.087,
2017-04-28, 08:00:06,VALID,919.535,VALID,0.0,VALID,97.396,VALID,214.207,VALID,20.657,VALID,298.0,VALID,0.277,
2017-04-28, 08:01:06,VALID,919.544,VALID,0.0,VALID,97.401,VALID,194.718,VALID,20.636,VALID,328.0,VALID,0.376,
2017-04-28, 08:02:06,VALID,919.538,VALID,0.0,VALID,97.252,VALID,168.688,VALID,20.603,VALID,315.0,VALID,0.552,
2017-04-28, 08:03:06,VALID,919.551,VALID,0.0,VALID,96.939,VALID,148.016,VALID,20.552,VALID,285.0,VALID,0.739,
2017-04-28, 08:04:06,VALID,919.549,VALID,0.0,VALID,96.85,VALID,138.055,VALID,20.506,VALID,306.0,VALID,0.54,
2017-04-28, 08:05:06,VALID,919.563,VALID,0.0,VALID,97.335,VALID,136.24,VALID,20.543,VALID,287.0,VALID,0.133,
2017-04-28, 08:06:06,VALID,919.569,VALID,0.0,VALID,97.742,VALID,140.295,VALID,20.641,VALID,12.0,VALID,0.274,
2017-04-28, 08:07:06,VALID,919.578,VALID,0.0,VALID,97.901,VALID,149.143,VALID,20.716,VALID,354.0,VALID,0.27,
2017-04-28, 08:08:06,VALID,919.589,VALID,0.0,VALID,98.01,VALID,163.194,VALID,20.791,VALID,8.0,VALID,0.356,
2017-04-28, 08:09:06,VALID,919.589,VALID,0.0,VALID,98.05,VALID,182.808,VALID,20.861,VALID,7.0,VALID,0.462,
2017-04-28, 08:10:06,VALID,919.601,VALID,0.0,VALID,97.937,VALID,209.504,VALID,20.867,VALID,4.0,VALID,0.887,
2017-04-28, 08:11:06,VALID,919.619,VALID,0.0,VALID,97.435,VALID,240.745,VALID,20.78,VALID,344.0,VALID,0.482,
2017-04-28, 08:12:06,VALID,919.616,VALID,0.0,VALID,97.406,VALID,263.75,VALID,20.792,VALID,334.0,VALID,0.057,
2017-04-28, 08:13:06,VALID,919.636,VALID,0.0,VALID,97.774,VALID,260.245,VALID,20.897,VALID,9.0,VALID,0.479,
2017-04-28, 08:14:06,VALID,919.644,VALID,0.0,VALID,97.814,VALID,245.726,VALID,20.958,VALID,311.0,VALID,0.226,
2017-04-28, 08:15:06,VALID,919.646,VALID,0.0,VALID,97.832,VALID,255.837,VALID,21.021,VALID,260.0,VALID,0.075,
2017-04-28, 08:16:06,VALID,919.648,VALID,0.0,VALID,97.842,VALID,262.662,VALID,21.075,VALID,332.0,VALID,0.034,
2017-04-28, 08:17:06,VALID,919.648,VALID,0.0,VALID,97.565,VALID,272.843,VALID,21.054,VALID,358.0,VALID,0.357,
2017-04-28, 08:18:06,VALID,919.674,VALID,0.0,VALID,97.463,VALID,323.941,VALID,21.078,VALID,20.0,VALID,0.069,
2017-04-28, 08:19:06,VALID,919.705,VALID,0.0,VALID,97.021,VALID,276.341,VALID,21.049,VALID,303.0,VALID,0.357,
2017-04-28, 08:20:06,VALID,919.731,VALID,0.0,VALID,97.211,VALID,169.889,VALID,21.064,VALID,359.0,VALID,0.105,
2017-04-28, 08:21:06,VALID,919.732,VALID,0.0,VALID,97.094,VALID,137.933,VALID,21.059,VALID,96.0,VALID,0.121,
2017-04-28, 08:22:06,VALID,919.748,VALID,0.0,VALID,97.138,VALID,152.741,VALID,21.069,VALID,3.0,VALID,0.02,
2017-04-28, 08:23:06,VALID,919.763,VALID,0.0,VALID,97.379,VALID,208.689,VALID,21.117,VALID,34.0,VALID,0.075,
2017-04-28, 08:24:06,VALID,919.779,VALID,0.0,VALID,97.41,VALID,259.645,VALID,21.143,VALID,31.0,VALID,0.02,
2017-04-28, 08:25:06,VALID,919.801,VALID,0.0,VALID,97.36,VALID,259.099,VALID,21.152,VALID,167.0,VALID,0.034,
2017-04-28, 08:26:06,VALID,919.83,VALID,0.0,VALID,97.263,VALID,259.473,VALID,21.159,VALID,167.0,VALID,0.063,
2017-04-28, 08:27:06,VALID,919.837,VALID,0.0,VALID,97.253,VALID,273.527,VALID,21.168,VALID,67.0,VALID,0.1,
2017-04-28, 08:28:06,VALID,919.861,VALID,0.0,VALID,97.228,VALID,286.739,VALID,21.195,VALID,177.0,VALID,0.107,
2017-04-28, 08:29:06,VALID,919.881,VALID,0.0,VALID,96.482,VALID,310.115,VALID,21.121,VALID,221.0,VALID,0.098,
2017-04-28, 08:30:06,VALID,919.905,VALID,0.0,VALID,97.094,VALID,324.233,VALID,21.223,VALID,21.0,VALID,0.582,
2017-04-28, 08:31:06,VALID,919.918,VALID,0.0,VALID,97.504,VALID,302.354,VALID,21.339,VALID,348.0,VALID,0.345,
2017-04-28, 08:32:06,VALID,919.91,VALID,0.0,VALID,96.916,VALID,273.884,VALID,21.32,VALID,341.0,VALID,0.467,
2017-04-28, 08:33:06,VALID,919.93,VALID,0.0,VALID,95.511,VALID,288.588,VALID,21.213,VALID,1.0,VALID,0.479,
2017-04-28, 08:34:06,VALID,919.945,VALID,0.0,VALID,95.806,VALID,309.242,VALID,21.198,VALID,189.0,VALID,0.039,
2017-04-28, 08:35:06,VALID,919.972,VALID,0.0,VALID,95.757,VALID,238.268,VALID,21.191,VALID,213.0,VALID,0.072,
2017-04-28, 08:36:06,VALID,919.982,VALID,0.0,VALID,95.686,VALID,221.16,VALID,21.149,VALID,297.0,VALID,0.468,
2017-04-28, 08:37:06,VALID,919.987,VALID,0.0,VALID,95.198,VALID,170.049,VALID,21.088,VALID,29.0,VALID,0.269,
2017-04-28, 08:38:06,VALID,919.991,VALID,0.0,VALID,94.343,VALID,144.339,VALID,20.957,VALID,309.0,VALID,0.648,
2017-04-28, 08:39:06,VALID,920.003,VALID,0.0,VALID,94.753,VALID,143.439,VALID,20.837,VALID,359.0,VALID,0.445,
2017-04-28, 08:40:06,VALID,920.019,VALID,0.0,VALID,95.536,VALID,149.92,VALID,20.788,VALID,275.0,VALID,0.13,
2017-04-28, 08:41:06,VALID,920.034,VALID,0.0,VALID,95.731,VALID,151.367,VALID,20.74,VALID,331.0,VALID,0.287,
2017-04-28, 08:42:06,VALID,920.06,VALID,0.0,VALID,96.099,VALID,146.538,VALID,20.692,VALID,241.0,VALID,0.158,
2017-04-28, 08:43:06,VALID,920.071,VALID,0.0,VALID,95.938,VALID,145.639,VALID,20.603,VALID,256.0,VALID,0.072,
2017-04-28, 08:44:06,VALID,920.084,VALID,0.0,VALID,96.265,VALID,151.269,VALID,20.569,VALID,16.0,VALID,0.305,
2017-04-28, 08:45:06,VALID,920.106,VALID,0.0,VALID,97.135,VALID,159.889,VALID,20.663,VALID,15.0,VALID,0.608,
2017-04-28, 08:46:06,VALID,920.132,VALID,0.0,VALID,97.563,VALID,160.009,VALID,20.754,VALID,22.0,VALID,0.5,
2017-04-28, 08:47:06,VALID,920.143,VALID,0.0,VALID,97.537,VALID,158.163,VALID,20.797,VALID,351.0,VALID,0.024,
2017-04-28, 08:48:06,VALID,920.168,VALID,0.0,VALID,97.337,VALID,158.975,VALID,20.782,VALID,339.0,VALID,0.252,
2017-04-28, 08:49:06,VALID,920.166,VALID,0.0,VALID,97.239,VALID,166.53,VALID,20.748,VALID,326.0,VALID,0.214,
2017-04-28, 08:50:06,VALID,920.167,VALID,0.0,VALID,96.769,VALID,174.297,VALID,20.65,VALID,348.0,VALID,0.065,
2017-04-28, 08:51:06,VALID,920.158,VALID,0.0,VALID,96.969,VALID,181.395,VALID,20.647,VALID,56.0,VALID,0.188,
2017-04-28, 08:52:06,VALID,920.16,VALID,0.0,VALID,97.069,VALID,189.591,VALID,20.645,VALID,19.0,VALID,0.106,
2017-04-28, 08:53:06,VALID,920.152,VALID,0.0,VALID,96.481,VALID,196.413,VALID,20.564,VALID,32.0,VALID,0.545,
2017-04-28, 08:54:06,VALID,920.167,VALID,0.0,VALID,95.969,VALID,196.622,VALID,20.472,VALID,23.0,VALID,0.073,
2017-04-28, 08:55:06,VALID,920.191,VALID,0.0,VALID,96.566,VALID,182.592,VALID,20.462,VALID,26.0,VALID,0.0,
2017-04-28, 08:56:06,VALID,920.213,VALID,0.0,VALID,97.002,VALID,156.806,VALID,20.5,VALID,26.0,VALID,0.0,
2017-04-28, 08:57:06,VALID,920.238,VALID,0.0,VALID,97.126,VALID,138.669,VALID,20.508,VALID,280.0,VALID,0.206,
2017-04-28, 08:58:06,VALID,920.253,VALID,0.0,VALID,96.811,VALID,125.319,VALID,20.44,VALID,253.0,VALID,0.427,
2017-04-28, 08:59:06,VALID,920.279,VALID,0.0,VALID,97.043,VALID,111.304,VALID,20.401,VALID,250.0,VALID,0.464,
2017-04-28, 09:00:06,VALID,920.285,VALID,0.0,VALID,97.367,VALID,101.819,VALID,20.418,VALID,269.0,VALID,0.121,
2017-04-28, 09:01:06,VALID,920.312,VALID,0.0,VALID,97.961,VALID,92.35,VALID,20.538,VALID,268.0,VALID,0.013,
